IBE2KC LEGR-LEMD

Flight info

Callsign IBE2KC
Flight time 0h 41m
Altitude 32000
Route VIBAS N865 MORAL
Aircraft A20N/M-SDE2E3FGHIRWXY/LB1

Departure

Time 2026-04-15 13:18
Airport F.G.L. Airport Granada-Jaén Airport (LEGR)

Arrival

Time 2026-04-15 13:59
Airport Adolfo Suárez Madrid–Barajas Airport (LEMD)
Time Latitude Longitude Altitude Speed Heading
2026-04-15 13:11 37.18564 -3.77656 1872 ft 0 kts 270°
2026-04-15 13:15 37.18606 -3.77790 1872 ft 32 kts 311°
2026-04-15 13:15 37.18705 -3.78183 1872 ft 53 kts 270°
2026-04-15 13:16 37.18702 -3.78637 1872 ft 52 kts 269°
2026-04-15 13:16 37.18701 -3.79083 1872 ft 51 kts 269°
2026-04-15 13:16 37.18765 -3.79321 1872 ft 23 kts
2026-04-15 13:16 37.18862 -3.79300 1864 ft 18 kts 48°
2026-04-15 13:17 37.18863 -3.79219 1872 ft 8 kts 94°
2026-04-15 13:17 37.18864 -3.78938 1873 ft 62 kts 89°
2026-04-15 13:17 37.18872 -3.77777 1870 ft 138 kts 89°
2026-04-15 13:17 37.18884 -3.76424 2069 ft 162 kts 90°
2026-04-15 13:18 37.18832 -3.74999 2587 ft 165 kts 92°
2026-04-15 13:18 37.18796 -3.74017 2998 ft 170 kts 90°
2026-04-15 13:18 37.18809 -3.72452 3457 ft 194 kts 86°
2026-04-15 13:18 37.18860 -3.70651 3851 ft 220 kts 88°
2026-04-15 13:19 37.18906 -3.68576 4055 ft 254 kts 87°
2026-04-15 13:19 37.19212 -3.66285 4392 ft 280 kts 67°
2026-04-15 13:19 37.20402 -3.64296 4848 ft 297 kts 33°
2026-04-15 13:19 37.22332 -3.63379 5599 ft 302 kts
2026-04-15 13:20 37.24449 -3.63269 6468 ft 307 kts
2026-04-15 13:20 37.26596 -3.63287 7334 ft 309 kts
2026-04-15 13:20 37.28757 -3.63293 8231 ft 311 kts
2026-04-15 13:20 37.30931 -3.63272 9108 ft 314 kts
2026-04-15 13:21 37.33130 -3.63234 9986 ft 317 kts
2026-04-15 13:21 37.35337 -3.63184 10796 ft 318 kts
2026-04-15 13:21 37.37562 -3.63127 11576 ft 321 kts
2026-04-15 13:21 37.39803 -3.63076 12379 ft 324 kts
2026-04-15 13:22 37.42073 -3.63048 13211 ft 327 kts
2026-04-15 13:22 37.44328 -3.63031 14017 ft 329 kts
2026-04-15 13:22 37.46627 -3.63018 14689 ft 333 kts 360°
2026-04-15 13:22 37.48964 -3.63005 15305 ft 337 kts 360°
2026-04-15 13:23 37.51325 -3.62990 15924 ft 342 kts 359°
2026-04-15 13:23 37.53715 -3.62974 16546 ft 346 kts 359°
2026-04-15 13:23 37.56137 -3.62956 17199 ft 349 kts 359°
2026-04-15 13:23 37.58581 -3.62938 17800 ft 354 kts 359°
2026-04-15 13:24 37.61056 -3.62920 18467 ft 357 kts 359°
2026-04-15 13:24 37.63551 -3.62901 18986 ft 361 kts 359°
2026-04-15 13:24 37.66075 -3.62882 19491 ft 365 kts 358°
2026-04-15 13:24 37.68633 -3.62862 20025 ft 368 kts 358°
2026-04-15 13:25 37.71210 -3.62844 20541 ft 372 kts 358°
2026-04-15 13:25 37.73784 -3.62822 21053 ft 376 kts 358°
2026-04-15 13:25 37.76414 -3.62801 21547 ft 379 kts 358°
2026-04-15 13:25 37.79066 -3.62779 22041 ft 383 kts 358°
2026-04-15 13:26 37.81742 -3.62756 22523 ft 387 kts 358°
2026-04-15 13:26 37.84452 -3.62733 22995 ft 390 kts 358°
2026-04-15 13:26 37.87183 -3.62710 23469 ft 394 kts 358°
2026-04-15 13:26 37.89938 -3.62687 23916 ft 397 kts 358°
2026-04-15 13:27 37.92713 -3.62664 24298 ft 400 kts 357°
2026-04-15 13:27 37.95511 -3.62640 24697 ft 403 kts 357°
2026-04-15 13:27 37.98324 -3.62616 25093 ft 405 kts 357°
2026-04-15 13:27 38.01149 -3.62593 25493 ft 408 kts 357°
2026-04-15 13:28 38.04006 -3.62569 25866 ft 411 kts 357°
2026-04-15 13:28 38.06872 -3.62545 26241 ft 413 kts 357°
2026-04-15 13:28 38.09755 -3.62521 26588 ft 416 kts 357°
2026-04-15 13:28 38.12649 -3.62497 26927 ft 418 kts 357°
2026-04-15 13:29 38.15541 -3.62430 27253 ft 422 kts 359°
2026-04-15 13:29 38.18482 -3.62192 27587 ft 425 kts
2026-04-15 13:29 38.21443 -3.61904 27910 ft 428 kts
2026-04-15 13:29 38.24418 -3.61608 28230 ft 430 kts
2026-04-15 13:30 38.27404 -3.61313 28544 ft 432 kts
2026-04-15 13:30 38.30414 -3.61018 28862 ft 435 kts
2026-04-15 13:30 38.33441 -3.60722 29186 ft 437 kts
2026-04-15 13:30 38.36483 -3.60427 29510 ft 439 kts
2026-04-15 13:31 38.39552 -3.60129 29803 ft 442 kts
2026-04-15 13:31 38.42591 -3.59833 30092 ft 444 kts
2026-04-15 13:31 38.45676 -3.59534 30369 ft 446 kts
2026-04-15 13:31 38.48781 -3.59232 30634 ft 448 kts
2026-04-15 13:32 38.51887 -3.58930 30977 ft 447 kts
2026-04-15 13:32 38.54982 -3.58627 31342 ft 445 kts
2026-04-15 13:32 38.58065 -3.58327 31691 ft 444 kts
2026-04-15 13:32 38.61151 -3.58026 32030 ft 443 kts
2026-04-15 13:33 38.64231 -3.57726 32197 ft 445 kts
2026-04-15 13:33 38.67319 -3.57425 32213 ft 445 kts
2026-04-15 13:33 38.73476 -3.56822 32218 ft 443 kts
2026-04-15 13:34 38.79596 -3.56223 32218 ft 443 kts
2026-04-15 13:34 38.85762 -3.55618 32216 ft 444 kts
2026-04-15 13:35 38.91919 -3.55013 32214 ft 444 kts
2026-04-15 13:35 38.98075 -3.54684 32213 ft 438 kts 349°
2026-04-15 13:36 39.01018 -3.55503 32213 ft 429 kts 335°
2026-04-15 13:36 39.03679 -3.57162 32216 ft 424 kts 326°
2026-04-15 13:36 39.08689 -3.61172 32209 ft 424 kts 324°
2026-04-15 13:37 39.13652 -3.65225 32211 ft 425 kts 324°
2026-04-15 13:37 39.18635 -3.69279 31928 ft 420 kts 324°
2026-04-15 13:38 39.21079 -3.71263 31432 ft 410 kts 324°
2026-04-15 13:38 39.23473 -3.73208 30822 ft 403 kts 324°
2026-04-15 13:38 39.25827 -3.75124 30158 ft 398 kts 324°
2026-04-15 13:38 39.28158 -3.77023 29389 ft 393 kts 324°
2026-04-15 13:39 39.30461 -3.78900 28632 ft 389 kts 324°
2026-04-15 13:39 39.32736 -3.80756 27937 ft 384 kts 324°
2026-04-15 13:39 39.34947 -3.82561 27274 ft 379 kts 324°
2026-04-15 13:39 39.37170 -3.84377 26578 ft 375 kts 324°
2026-04-15 13:40 39.39365 -3.86172 25909 ft 371 kts 324°
2026-04-15 13:40 39.41525 -3.87938 25543 ft 360 kts 324°
2026-04-15 13:40 39.43597 -3.89630 25298 ft 346 kts 324°
2026-04-15 13:40 39.45599 -3.91270 24921 ft 336 kts 324°
2026-04-15 13:41 39.47565 -3.92882 24421 ft 332 kts 324°
2026-04-15 13:41 39.49508 -3.94479 23899 ft 329 kts 325°
2026-04-15 13:41 39.51431 -3.96060 23303 ft 327 kts 325°
2026-04-15 13:41 39.53343 -3.97630 22680 ft 324 kts 325°
2026-04-15 13:42 39.55235 -3.99187 22079 ft 321 kts 325°
2026-04-15 13:42 39.57115 -4.00733 21486 ft 318 kts 326°
2026-04-15 13:42 39.58978 -4.02267 20911 ft 316 kts 326°
2026-04-15 13:42 39.60825 -4.03787 20356 ft 313 kts 326°
2026-04-15 13:43 39.62636 -4.05279 19804 ft 311 kts 327°
2026-04-15 13:43 39.64536 -4.06602 19256 ft 310 kts 336°
2026-04-15 13:43 39.66606 -4.07337 18717 ft 310 kts 351°
2026-04-15 13:43 39.68757 -4.07325 18133 ft 310 kts
2026-04-15 13:44 39.70827 -4.06543 17529 ft 312 kts 22°
2026-04-15 13:44 39.72662 -4.05046 16947 ft 313 kts 37°
2026-04-15 13:44 39.74251 -4.03114 16395 ft 312 kts 42°
2026-04-15 13:44 39.75761 -4.01102 15853 ft 310 kts 43°
2026-04-15 13:45 39.77255 -3.99093 15313 ft 307 kts 42°
2026-04-15 13:45 39.78737 -3.97107 14793 ft 304 kts 42°
2026-04-15 13:45 39.80215 -3.95137 14265 ft 302 kts 42°
2026-04-15 13:47 39.90176 -3.81899 10571 ft 283 kts 43°
2026-04-15 13:47 39.91550 -3.80071 10086 ft 281 kts 43°
2026-04-15 13:47 39.92913 -3.78254 9535 ft 279 kts 43°
2026-04-15 13:48 39.94274 -3.76442 8977 ft 279 kts 43°
2026-04-15 13:48 39.95628 -3.74636 8471 ft 278 kts 43°
2026-04-15 13:48 39.96971 -3.72844 8245 ft 276 kts 43°
2026-04-15 13:48 39.98321 -3.71042 8199 ft 278 kts 43°
2026-04-15 13:49 39.99655 -3.69260 8205 ft 278 kts 43°
2026-04-15 13:49 40.00993 -3.67473 8202 ft 278 kts 43°
2026-04-15 13:49 40.02247 -3.65796 8199 ft 277 kts 43°
2026-04-15 13:49 40.03551 -3.64053 8233 ft 274 kts 44°
2026-04-15 13:50 40.04830 -3.62341 8199 ft 277 kts 43°
2026-04-15 13:50 40.06181 -3.60531 8200 ft 278 kts 44°
2026-04-15 13:50 40.07509 -3.58747 8196 ft 265 kts 43°
2026-04-15 13:50 40.08741 -3.57089 8201 ft 251 kts 43°
2026-04-15 13:51 40.09942 -3.55476 8205 ft 247 kts 43°
2026-04-15 13:51 40.11145 -3.53863 8206 ft 247 kts 43°
2026-04-15 13:51 40.12349 -3.52248 8203 ft 248 kts 37°
2026-04-15 13:51 40.13558 -3.50637 8205 ft 247 kts 43°
2026-04-15 13:52 40.14744 -3.49038 8159 ft 240 kts 43°
2026-04-15 13:52 40.15902 -3.47498 7989 ft 241 kts 40°
2026-04-15 13:52 40.17260 -3.46230 7972 ft 240 kts 21°
2026-04-15 13:52 40.18838 -3.45542 8171 ft 238 kts 11°
2026-04-15 13:53 40.20443 -3.45071 8202 ft 235 kts
2026-04-15 13:53 40.22039 -3.44644 8205 ft 234 kts
2026-04-15 13:53 40.23637 -3.44218 8203 ft 233 kts
2026-04-15 13:53 40.25205 -3.43796 8044 ft 228 kts
2026-04-15 13:54 40.26763 -3.43373 7668 ft 230 kts
2026-04-15 13:54 40.28333 -3.42947 7226 ft 229 kts
2026-04-15 13:54 40.29848 -3.42529 6904 ft 223 kts
2026-04-15 13:54 40.31379 -3.42109 6438 ft 222 kts
2026-04-15 13:55 40.32898 -3.41702 5795 ft 230 kts
2026-04-15 13:55 40.34484 -3.41601 5297 ft 226 kts 350°
2026-04-15 13:55 40.35933 -3.42192 5036 ft 211 kts 329°
2026-04-15 13:55 40.37122 -3.43205 4693 ft 199 kts 321°
2026-04-15 13:56 40.38224 -3.44304 4047 ft 201 kts 319°
2026-04-15 13:56 40.39336 -3.45447 3495 ft 200 kts 319°
2026-04-15 13:56 40.40378 -3.46507 3305 ft 180 kts 319°
2026-04-15 13:56 40.41335 -3.47485 3169 ft 171 kts 319°
2026-04-15 13:57 40.42257 -3.48422 3019 ft 164 kts 319°
2026-04-15 13:57 40.43160 -3.49338 2983 ft 159 kts 319°
2026-04-15 13:57 40.44014 -3.50203 2998 ft 153 kts 319°
2026-04-15 13:57 40.44854 -3.51062 2679 ft 150 kts 316°
2026-04-15 13:58 40.45668 -3.51906 2417 ft 151 kts 320°
2026-04-15 13:58 40.46491 -3.52720 2138 ft 148 kts 316°
2026-04-15 13:58 40.47285 -3.53539 1940 ft 141 kts 318°
2026-04-15 13:58 40.47995 -3.54263 1919 ft 108 kts 322°
2026-04-15 13:59 40.48445 -3.54719 1928 ft 55 kts 322°
2026-04-15 13:59 40.48630 -3.54905 1934 ft 27 kts 322°
2026-04-15 13:59 40.48765 -3.55078 1938 ft 27 kts 301°
2026-04-15 13:59 40.48860 -3.55392 1942 ft 40 kts 297°
2026-04-15 14:00 40.49096 -3.55671 1948 ft 57 kts 322°
2026-04-15 14:00 40.49315 -3.56034 1956 ft 46 kts 251°
2026-04-15 14:00 40.49316 -3.56333 1963 ft 35 kts 269°
2026-04-15 14:00 40.49302 -3.56626 1974 ft 19 kts 270°